User: anonymous
Location: Norwich
(52.6280°N, 1.3030°E)
Time: 11:28:10
(UTC+01:00)
Language:

ATLAS 5 CENTAUR R/B - Orbit

View from above orbital plane
View from above orbital plane
View from above satellite
View from above satellite

Ground track
Ground track

The orbit data is extracted from the following two-line orbital elements,

1 32379U 07060B   14034.45827430 0.00006118  00000-0  15774-2 0    07
2 32379  60.8364 157.5529 5230852 166.7060 214.2639  5.20966852    08
Epoch (UTC): 03 February 2014 10:59:54
Eccentricity: 0.5230852
inclination: 60.8364°
perigee height: 325 km
apogee height: 15030 km
right ascension of ascending node: 157.5529°
argument of perigee: 166.7060°
revolutions per day: 5.20966852
mean anomaly at epoch: 214.2639°
orbit number at epoch: 0

The dashed part of the orbit path shows where the satellite is in the earth's shadow,  

DLR